Check out our new BloomSky Weather System.

Active alerts


No alerts


Thunder radar  blitzortung!


Rain radar more information rain snow radar


Visit our other weather sites:

Template documentation
and downloads

And another site



Weather Underground History page Text

Daily Summary for November 12, 2017 Units:  English    Metric   Both
« Previous Day
Next Day »
Daily Weekly Monthly Yearly Custom
  High: Low: Average:
Temperature: TemperatureF °F 58.6 °F 68.1 °F
Dew Point: DewpointF °F 54.1 °F 59.9 °F
Humidity: Humidity % 53 % 76 %
Wind Speed: WindSpeedMPH mph 0.0 mph 0.5 mph
Wind Gust: WindSpeedGustMPH mph - -
Wind:- - SE
Pressure: PressureIn in 30.11 in -
Precipitation: 0.00 in    
Historical Graphs
 
 
Tabular Data for November 12, 2017
Time Temperature Dew Point Pressure Wind Wind Speed Wind Gust Humidity Rainfall Rate (Hourly)
TemperatureF °F DewpointF °F PressureIn in Calm     Humidity % HourlyPrecipIn in
00:00 63.3 °F 57.4 °F 30.12 in Calm   1.0 mph 81 % 0.00 in
00:05 63.1 °F 56.8 °F 30.12 in Calm   1.0 mph 80 % 0.00 in
00:10 63.1 °F 56.8 °F 30.12 in Calm   1.0 mph 80 % 0.00 in
00:15 63.0 °F 56.7 °F 30.12 in SE 1.0 mph 1.0 mph 80 % 0.00 in
00:20 63.0 °F 56.7 °F 30.11 in Calm   1.0 mph 80 % 0.00 in
00:25 62.8 °F 56.1 °F 30.11 in Calm   2.0 mph 79 % 0.00 in
00:30 62.6 °F 55.9 °F 30.12 in Calm   2.0 mph 79 % 0.00 in
00:35 62.4 °F 55.8 °F 30.12 in ESE 2.0 mph 3.0 mph 79 % 0.00 in
00:40 62.4 °F 55.4 °F 30.12 in South 1.0 mph 3.0 mph 78 % 0.00 in
00:45 62.4 °F 55.4 °F 30.12 in Calm   3.0 mph 78 % 0.00 in
00:50 62.2 °F 55.6 °F 30.12 in Calm   3.0 mph 79 % 0.00 in
00:55 61.9 °F 55.2 °F 30.12 in Calm   1.0 mph 79 % 0.00 in
01:00 61.5 °F 54.9 °F 30.12 in Calm     79 % 0.00 in
01:05 61.0 °F 55.0 °F 30.12 in Calm     81 % 0.00 in
01:10 60.6 °F 55.0 °F 30.12 in Calm     82 % 0.00 in
01:15 60.6 °F 55.4 °F 30.12 in Calm     83 % 0.00 in
01:16 60.4 °F 55.2 °F 30.12 in Calm     83 % 0.00 in
01:21 60.4 °F 55.2 °F 30.12 in Calm     83 % 0.00 in
01:26 60.4 °F 55.6 °F 30.12 in Calm     84 % 0.00 in
01:31 60.4 °F 55.6 °F 30.12 in Calm     84 % 0.00 in
01:36 60.3 °F 55.4 °F 30.12 in Calm     84 % 0.00 in
01:41 60.1 °F 55.6 °F 30.12 in Calm   1.0 mph 85 % 0.00 in
01:46 60.1 °F 55.6 °F 30.12 in Calm   1.0 mph 85 % 0.00 in
01:51 59.7 °F 55.2 °F 30.12 in Calm   1.0 mph 85 % 0.00 in
01:56 59.7 °F 55.6 °F 30.11 in Calm   1.0 mph 86 % 0.00 in
02:01 59.5 °F 55.4 °F 30.11 in Calm   1.0 mph 86 % 0.00 in
02:06 59.5 °F 55.4 °F 30.11 in Calm   1.0 mph 86 % 0.00 in
02:11 59.5 °F 55.4 °F 30.12 in Calm   1.0 mph 86 % 0.00 in
02:16 59.5 °F 55.4 °F 30.12 in Calm   1.0 mph 86 % 0.00 in
02:21 59.7 °F 55.6 °F 30.12 in Calm   1.0 mph 86 % 0.00 in
02:26 59.7 °F 55.2 °F 30.12 in Calm   1.0 mph 85 % 0.00 in
02:31 59.9 °F 55.8 °F 30.12 in Calm   1.0 mph 86 % 0.00 in
02:36 59.9 °F 55.4 °F 30.12 in Calm   1.0 mph 85 % 0.00 in
02:41 59.9 °F 55.4 °F 30.12 in Calm   1.0 mph 85 % 0.00 in
02:46 59.9 °F 55.4 °F 30.11 in Calm     85 % 0.00 in
02:51 59.9 °F 55.8 °F 30.11 in Calm     86 % 0.00 in
02:56 60.1 °F 55.6 °F 30.12 in Calm   1.0 mph 85 % 0.00 in
03:01 60.1 °F 55.6 °F 30.12 in Calm   1.0 mph 85 % 0.00 in
03:06 60.3 °F 55.8 °F 30.12 in Calm   1.0 mph 85 % 0.00 in
03:11 60.3 °F 55.8 °F 30.12 in Calm   1.0 mph 85 % 0.00 in
03:13 60.3 °F 55.8 °F 30.12 in Calm   1.0 mph 85 % 0.00 in
03:18 60.1 °F 55.6 °F 30.12 in Calm   1.0 mph 85 % 0.00 in
03:23 60.1 °F 55.6 °F 30.11 in Calm   1.0 mph 85 % 0.00 in
03:28 60.1 °F 55.6 °F 30.12 in Calm   1.0 mph 85 % 0.00 in
03:33 60.1 °F 55.6 °F 30.12 in Calm   1.0 mph 85 % 0.00 in
03:38 59.9 °F 55.4 °F 30.12 in Calm   1.0 mph 85 % 0.00 in
03:43 59.7 °F 55.2 °F 30.12 in Calm   1.0 mph 85 % 0.00 in
03:48 59.7 °F 55.2 °F 30.12 in Calm   1.0 mph 85 % 0.00 in
03:53 59.7 °F 55.6 °F 30.12 in Calm   1.0 mph 86 % 0.00 in
03:58 59.5 °F 55.4 °F 30.12 in Calm   1.0 mph 86 % 0.00 in
04:04 59.5 °F 55.0 °F 30.12 in Calm   2.0 mph 85 % 0.00 in
04:09 59.4 °F 55.2 °F 30.12 in Calm   2.0 mph 86 % 0.00 in
04:14 59.4 °F 55.2 °F 30.13 in Calm   2.0 mph 86 % 0.00 in
04:19 59.2 °F 55.0 °F 30.13 in Calm   1.0 mph 86 % 0.00 in
04:24 59.2 °F 55.4 °F 30.13 in Calm   1.0 mph 87 % 0.00 in
04:29 59.2 °F 55.4 °F 30.13 in Calm   2.0 mph 87 % 0.00 in
04:34 59.2 °F 55.0 °F 30.13 in Calm   2.0 mph 86 % 0.00 in
04:39 59.0 °F 54.9 °F 30.14 in Calm   2.0 mph 86 % 0.00 in
04:44 59.2 °F 55.0 °F 30.14 in NNE 1.0 mph 1.0 mph 86 % 0.00 in
04:49 59.2 °F 55.0 °F 30.14 in Calm   1.0 mph 86 % 0.00 in
04:54 59.2 °F 55.0 °F 30.14 in Calm   1.0 mph 86 % 0.00 in
04:59 59.2 °F 55.0 °F 30.14 in Calm   1.0 mph 86 % 0.00 in
05:04 59.2 °F 55.0 °F 30.14 in Calm   1.0 mph 86 % 0.00 in
05:09 59.0 °F 54.9 °F 30.14 in Calm   1.0 mph 86 % 0.00 in
05:14 59.0 °F 54.5 °F 30.14 in Calm   1.0 mph 85 % 0.00 in
05:19 58.8 °F 54.3 °F 30.14 in Calm   1.0 mph 85 % 0.00 in
05:24 58.8 °F 54.3 °F 30.14 in Calm   1.0 mph 85 % 0.00 in
05:29 58.8 °F 54.3 °F 30.14 in Calm   1.0 mph 85 % 0.00 in
05:34 58.8 °F 54.3 °F 30.14 in Calm   1.0 mph 85 % 0.00 in
05:39 58.6 °F 54.1 °F 30.14 in Calm   1.0 mph 85 % 0.00 in
05:44 58.6 °F 54.5 °F 30.14 in Calm   1.0 mph 86 % 0.00 in
05:49 58.6 °F 54.5 °F 30.14 in Calm   1.0 mph 86 % 0.00 in
05:54 58.6 °F 54.5 °F 30.14 in Calm   2.0 mph 86 % 0.00 in
05:59 58.6 °F 54.1 °F 30.15 in Calm   2.0 mph 85 % 0.00 in
06:04 58.8 °F 54.3 °F 30.15 in Calm   2.0 mph 85 % 0.00 in
06:09 58.8 °F 54.3 °F 30.15 in Calm   2.0 mph 85 % 0.00 in
06:14 58.8 °F 54.3 °F 30.15 in Calm   2.0 mph 85 % 0.00 in
06:19 59.0 °F 54.5 °F 30.15 in East 1.0 mph 2.0 mph 85 % 0.00 in
06:24 59.2 °F 54.7 °F 30.16 in Calm   2.0 mph 85 % 0.00 in
06:29 59.2 °F 54.7 °F 30.15 in Calm   2.0 mph 85 % 0.00 in
06:34 59.4 °F 54.5 °F 30.15 in Calm   3.0 mph 84 % 0.00 in
06:39 59.4 °F 54.5 °F 30.16 in Calm   3.0 mph 84 % 0.00 in
06:44 59.4 °F 54.5 °F 30.16 in Calm   3.0 mph 84 % 0.00 in
06:49 59.4 °F 54.5 °F 30.16 in Calm   2.0 mph 84 % 0.00 in
06:54 59.4 °F 54.5 °F 30.16 in ENE 2.0 mph 2.0 mph 84 % 0.00 in
06:59 59.5 °F 54.7 °F 30.16 in Calm   3.0 mph 84 % 0.00 in
07:04 59.7 °F 54.9 °F 30.16 in Calm   3.0 mph 84 % 0.00 in
07:05 59.7 °F 54.9 °F 30.16 in Calm   3.0 mph 84 % 0.00 in
07:10 59.7 °F 54.5 °F 30.16 in ENE 1.0 mph 2.0 mph 83 % 0.00 in
07:15 60.1 °F 54.9 °F 30.17 in Calm   2.0 mph 83 % 0.00 in
07:20 60.1 °F 54.9 °F 30.17 in East 1.0 mph 2.0 mph 83 % 0.00 in
07:25 60.3 °F 54.7 °F 30.17 in Calm   2.0 mph 82 % 0.00 in
07:30 60.4 °F 54.9 °F 30.18 in Calm   2.0 mph 82 % 0.00 in
07:35 60.6 °F 55.0 °F 30.18 in Calm   2.0 mph 82 % 0.00 in
07:40 61.0 °F 55.4 °F 30.18 in Calm   2.0 mph 82 % 0.00 in
07:45 61.0 °F 55.0 °F 30.18 in Calm   1.0 mph 81 % 0.00 in
07:50 61.3 °F 55.0 °F 30.18 in Calm   2.0 mph 80 % 0.00 in
07:55 61.5 °F 55.2 °F 30.18 in Calm   2.0 mph 80 % 0.00 in
08:00 61.9 °F 55.6 °F 30.18 in Calm   2.0 mph 80 % 0.00 in
08:05 62.2 °F 55.6 °F 30.19 in ESE 2.0 mph 2.0 mph 79 % 0.00 in
08:06 62.2 °F 55.6 °F 30.18 in ESE 1.0 mph 2.0 mph 79 % 0.00 in
08:11 62.4 °F 55.4 °F 30.19 in Calm   3.0 mph 78 % 0.00 in
08:12 62.4 °F 55.4 °F 30.19 in Calm   3.0 mph 78 % 0.00 in
08:17 62.8 °F 55.4 °F 30.19 in Calm   3.0 mph 77 % 0.00 in
08:22 63.3 °F 56.3 °F 30.19 in North 2.0 mph 3.0 mph 78 % 0.00 in
08:27 63.9 °F 56.1 °F 30.20 in Calm   3.0 mph 76 % 0.00 in
08:32 64.0 °F 56.3 °F 30.20 in Calm   3.0 mph 76 % 0.00 in
08:37 64.4 °F 56.3 °F 30.20 in ESE 1.0 mph 3.0 mph 75 % 0.00 in
08:42 64.8 °F 56.3 °F 30.21 in East 1.0 mph 2.0 mph 74 % 0.00 in
08:47 64.9 °F 56.8 °F 30.21 in Calm   3.0 mph 75 % 0.00 in
08:52 65.1 °F 56.7 °F 30.21 in Calm   3.0 mph 74 % 0.00 in
08:57 65.1 °F 56.7 °F 30.21 in ENE 3.0 mph 3.0 mph 74 % 0.00 in
09:02 65.3 °F 56.8 °F 30.21 in ENE 3.0 mph 3.0 mph 74 % 0.00 in
09:07 65.5 °F 56.7 °F 30.21 in East 3.0 mph 4.0 mph 73 % 0.00 in
09:12 65.5 °F 56.7 °F 30.21 in East 2.0 mph 4.0 mph 73 % 0.00 in
09:17 65.7 °F 57.2 °F 30.22 in ENE 2.0 mph 4.0 mph 74 % 0.00 in
09:22 65.8 °F 57.0 °F 30.22 in Calm   4.0 mph 73 % 0.00 in
09:27 66.2 °F 57.2 °F 30.22 in Calm   4.0 mph 73 % 0.00 in
09:33 66.4 °F 57.4 °F 30.22 in Calm   4.0 mph 73 % 0.00 in
09:38 66.9 °F 57.9 °F 30.22 in ENE 3.0 mph 4.0 mph 73 % 0.00 in
09:43 67.5 °F 57.7 °F 30.22 in ENE 1.0 mph 5.0 mph 71 % 0.00 in
09:48 67.8 °F 58.1 °F 30.22 in ESE 3.0 mph 5.0 mph 71 % 0.00 in
09:53 68.0 °F 58.6 °F 30.22 in East 2.0 mph 5.0 mph 72 % 0.00 in
09:58 68.2 °F 58.5 °F 30.22 in Calm   5.0 mph 71 % 0.00 in
10:03 68.4 °F 59.0 °F 30.22 in NE 2.0 mph 5.0 mph 72 % 0.00 in
10:08 68.5 °F 59.2 °F 30.22 in SE 2.0 mph 5.0 mph 72 % 0.00 in
10:13 68.5 °F 59.2 °F 30.21 in East 3.0 mph 5.0 mph 72 % 0.00 in
10:18 68.5 °F 59.2 °F 30.21 in SE 1.0 mph 7.0 mph 72 % 0.00 in
10:23 68.7 °F 59.4 °F 30.21 in SE 2.0 mph 7.0 mph 72 % 0.00 in
10:28 68.9 °F 59.5 °F 30.21 in ESE 3.0 mph 7.0 mph 72 % 0.00 in
10:33 69.3 °F 59.9 °F 30.22 in ESE 3.0 mph 7.0 mph 72 % 0.00 in
10:38 69.6 °F 60.3 °F 30.21 in NNW 2.0 mph 7.0 mph 72 % 0.00 in
10:43 70.0 °F 60.6 °F 30.21 in SW 1.0 mph 5.0 mph 72 % 0.00 in
10:48 70.7 °F 60.8 °F 30.21 in ENE 1.0 mph 5.0 mph 71 % 0.00 in
10:49 70.9 °F 60.6 °F 30.21 in SE 3.0 mph 5.0 mph 70 % 0.00 in
10:54 70.9 °F 61.0 °F 30.21 in East 3.0 mph 5.0 mph 71 % 0.00 in
10:59 71.1 °F 61.2 °F 30.20 in Calm   6.0 mph 71 % 0.00 in
11:04 71.2 °F 61.3 °F 30.20 in WSW 1.0 mph 6.0 mph 71 % 0.00 in
11:09 71.4 °F 61.5 °F 30.20 in ESE 3.0 mph 6.0 mph 71 % 0.00 in
11:14 71.8 °F 61.9 °F 30.20 in ESE 3.0 mph 6.0 mph 71 % 0.00 in
11:19 72.1 °F 62.2 °F 30.20 in ESE 1.0 mph 6.0 mph 71 % 0.00 in
11:24 72.3 °F 62.4 °F 30.20 in ENE 2.0 mph 6.0 mph 71 % 0.00 in
11:29 73.0 °F 63.1 °F 30.20 in SE 1.0 mph 6.0 mph 71 % 0.00 in
11:34 73.2 °F 62.8 °F 30.19 in Calm   6.0 mph 70 % 0.00 in
11:39 73.6 °F 64.0 °F 30.19 in Calm   6.0 mph 72 % 0.00 in
11:44 74.3 °F 64.2 °F 30.19 in NNE 1.0 mph 4.0 mph 71 % 0.00 in
11:50 74.8 °F 64.4 °F 30.19 in Calm   3.0 mph 70 % 0.00 in
11:55 75.4 °F 64.6 °F 30.19 in ENE 1.0 mph 3.0 mph 69 % 0.00 in
12:00 75.6 °F 65.1 °F 30.19 in Calm   5.0 mph 70 % 0.00 in
12:05 76.1 °F 65.1 °F 30.18 in Calm   5.0 mph 69 % 0.00 in
12:10 76.6 °F 65.3 °F 30.18 in East 1.0 mph 5.0 mph 68 % 0.00 in
12:15 77.0 °F 65.7 °F 30.18 in SSW 1.0 mph 5.0 mph 68 % 0.00 in
12:20 77.5 °F 64.8 °F 30.18 in SSE 1.0 mph 5.0 mph 65 % 0.00 in
12:25 77.5 °F 65.3 °F 30.18 in East 2.0 mph 5.0 mph 66 % 0.00 in
12:30 77.2 °F 64.6 °F 30.17 in Calm   5.0 mph 65 % 0.00 in
12:35 77.2 °F 64.6 °F 30.17 in Calm   4.0 mph 65 % 0.00 in
12:40 77.0 °F 64.8 °F 30.17 in ESE 1.0 mph 4.0 mph 66 % 0.00 in
12:45 77.0 °F 64.8 °F 30.17 in Calm   3.0 mph 66 % 0.00 in
12:48 77.0 °F 64.8 °F 30.17 in SW 1.0 mph 3.0 mph 66 % 0.00 in
12:53 78.1 °F 65.3 °F 30.17 in SE 1.0 mph 2.0 mph 65 % 0.00 in
12:58 78.4 °F 64.8 °F 30.17 in SE 1.0 mph 3.0 mph 63 % 0.00 in
13:03 78.8 °F 64.8 °F 30.17 in SSW 2.0 mph 3.0 mph 62 % 0.00 in
13:08 78.6 °F 64.0 °F 30.17 in SW 2.0 mph 4.0 mph 61 % 0.00 in
13:13 78.4 °F 63.9 °F 30.17 in North 1.0 mph 4.0 mph 61 % 0.00 in
13:18 78.3 °F 64.6 °F 30.17 in North 2.0 mph 4.0 mph 63 % 0.00 in
13:23 78.4 °F 64.8 °F 30.17 in Calm   4.0 mph 63 % 0.00 in
13:28 78.6 °F 64.6 °F 30.17 in Calm   4.0 mph 62 % 0.00 in
13:33 78.4 °F 64.4 °F 30.17 in Calm   4.0 mph 62 % 0.00 in
13:38 78.6 °F 64.9 °F 30.17 in Calm   3.0 mph 63 % 0.00 in
13:39 78.4 °F 64.8 °F 30.17 in Calm   3.0 mph 63 % 0.00 in
13:44 78.6 °F 64.6 °F 30.16 in Calm   3.0 mph 62 % 0.00 in
13:49 79.0 °F 65.3 °F 30.16 in Calm   2.0 mph 63 % 0.00 in
13:54 79.7 °F 66.0 °F 30.16 in SE 1.0 mph 2.0 mph 63 % 0.00 in
13:59 80.2 °F 65.5 °F 30.16 in SSW 1.0 mph 4.0 mph 61 % 0.00 in
14:04 80.2 °F 64.6 °F 30.16 in WNW 4.0 mph 4.0 mph 59 % 0.00 in
14:09 79.9 °F 65.7 °F 30.16 in ENE 2.0 mph 5.0 mph 62 % 0.00 in
14:14 80.2 °F 65.1 °F 30.16 in SSE 1.0 mph 5.0 mph 60 % 0.00 in
14:19 80.4 °F 65.7 °F 30.16 in NNW 2.0 mph 5.0 mph 61 % 0.00 in
14:24 80.2 °F 65.5 °F 30.16 in Calm   5.0 mph 61 % 0.00 in
14:29 80.1 °F 64.9 °F 30.16 in Calm   5.0 mph 60 % 0.00 in
14:34 80.2 °F 65.5 °F 30.16 in ESE 2.0 mph 5.0 mph 61 % 0.00 in
14:35 80.2 °F 65.5 °F 30.16 in Calm   4.0 mph 61 % 0.00 in
14:40 80.2 °F 65.1 °F 30.16 in Calm   4.0 mph 60 % 0.00 in
14:45 79.9 °F 65.3 °F 30.16 in Calm   4.0 mph 61 % 0.00 in
14:50 79.9 °F 64.8 °F 30.16 in SE 2.0 mph 4.0 mph 60 % 0.00 in
14:55 80.1 °F 65.5 °F 30.16 in Calm   4.0 mph 61 % 0.00 in
15:00 80.4 °F 64.2 °F 30.15 in Calm   4.0 mph 58 % 0.00 in
15:05 80.6 °F 64.4 °F 30.15 in NW 2.0 mph 3.0 mph 58 % 0.00 in
15:10 81.0 °F 64.2 °F 30.15 in NNW 2.0 mph 3.0 mph 57 % 0.00 in
15:15 80.8 °F 65.1 °F 30.15 in SE 3.0 mph 5.0 mph 59 % 0.00 in
15:20 80.8 °F 63.7 °F 30.15 in ESE 1.0 mph 5.0 mph 56 % 0.00 in
15:23 80.8 °F 63.7 °F 30.15 in Calm   5.0 mph 56 % 0.00 in
15:25 81.0 °F 63.9 °F 30.15 in Calm   5.0 mph 56 % 0.00 in
15:30 81.1 °F 64.0 °F 30.15 in East 1.0 mph 4.0 mph 56 % 0.00 in
15:35 81.0 °F 63.3 °F 30.15 in ESE 2.0 mph 3.0 mph 55 % 0.00 in
15:40 81.0 °F 63.3 °F 30.15 in NNE 2.0 mph 3.0 mph 55 % 0.00 in
15:45 81.0 °F 62.8 °F 30.15 in Calm   3.0 mph 54 % 0.00 in
15:50 81.0 °F 62.2 °F 30.15 in NE 1.0 mph 3.0 mph 53 % 0.00 in
15:55 80.6 °F 62.4 °F 30.16 in Calm   4.0 mph 54 % 0.00 in
15:56 80.4 °F 62.2 °F 30.16 in NNE 1.0 mph 4.0 mph 54 % 0.00 in
16:01 80.1 °F 61.9 °F 30.16 in Calm   4.0 mph 54 % 0.00 in
16:06 80.1 °F 61.3 °F 30.16 in SE 1.0 mph 4.0 mph 53 % 0.00 in
16:11 79.9 °F 61.2 °F 30.16 in SE 3.0 mph 4.0 mph 53 % 0.00 in
16:16 79.5 °F 60.8 °F 30.15 in SSE 2.0 mph 4.0 mph 53 % 0.00 in
16:21 79.3 °F 61.2 °F 30.16 in East 2.0 mph 4.0 mph 54 % 0.00 in
16:26 79.2 °F 60.6 °F 30.16 in ESE 2.0 mph 4.0 mph 53 % 0.00 in
16:31 79.0 °F 60.4 °F 30.16 in Calm   4.0 mph 53 % 0.00 in
16:36 79.0 °F 61.5 °F 30.16 in Calm   4.0 mph 55 % 0.00 in
16:41 78.8 °F 61.3 °F 30.17 in Calm   3.0 mph 55 % 0.00 in
16:46 78.6 °F 61.5 °F 30.17 in Calm   3.0 mph 56 % 0.00 in
16:49 78.4 °F 61.5 °F 30.17 in Calm   3.0 mph 56 % 0.00 in
16:54 78.1 °F 61.5 °F 30.17 in Calm   2.0 mph 57 % 0.00 in
16:59 77.7 °F 62.2 °F 30.17 in Calm   2.0 mph 59 % 0.00 in
17:04 77.4 °F 62.4 °F 30.17 in Calm   2.0 mph 60 % 0.00 in
17:09 76.8 °F 62.4 °F 30.17 in Calm   2.0 mph 61 % 0.00 in
17:14 76.5 °F 62.4 °F 30.17 in Calm   1.0 mph 62 % 0.00 in
17:19 76.3 °F 62.8 °F 30.17 in Calm   1.0 mph 63 % 0.00 in
17:24 75.7 °F 62.8 °F 30.17 in Calm   1.0 mph 64 % 0.00 in
17:29 75.6 °F 63.0 °F 30.17 in Calm   1.0 mph 65 % 0.00 in
17:34 75.4 °F 62.8 °F 30.18 in Calm   1.0 mph 65 % 0.00 in
17:39 75.0 °F 63.0 °F 30.18 in Calm   1.0 mph 66 % 0.00 in
17:44 74.8 °F 62.8 °F 30.18 in Calm   1.0 mph 66 % 0.00 in
17:49 74.7 °F 63.0 °F 30.19 in Calm   1.0 mph 67 % 0.00 in
17:54 74.5 °F 63.1 °F 30.19 in Calm   1.0 mph 68 % 0.00 in
17:59 74.1 °F 63.3 °F 30.19 in Calm   1.0 mph 69 % 0.00 in
18:00 74.1 °F 63.3 °F 30.19 in Calm   1.0 mph 69 % 0.00 in
18:05 73.9 °F 63.5 °F 30.19 in Calm   1.0 mph 70 % 0.00 in
18:10 73.8 °F 63.7 °F 30.19 in Calm   1.0 mph 71 % 0.00 in
18:15 73.6 °F 63.7 °F 30.19 in Calm   1.0 mph 71 % 0.00 in
18:20 73.2 °F 64.0 °F 30.19 in Calm   1.0 mph 73 % 0.00 in
18:25 73.2 °F 64.0 °F 30.19 in Calm   1.0 mph 73 % 0.00 in
18:30 73.0 °F 64.2 °F 30.19 in Calm   1.0 mph 74 % 0.00 in
18:35 73.0 °F 64.6 °F 30.20 in Calm   1.0 mph 75 % 0.00 in
18:41 73.0 °F 64.6 °F 30.20 in Calm   1.0 mph 75 % 0.00 in
18:46 72.9 °F 64.8 °F 30.20 in Calm   2.0 mph 76 % 0.00 in
18:51 72.9 °F 64.8 °F 30.20 in Calm   2.0 mph 76 % 0.00 in
18:56 72.9 °F 64.8 °F 30.20 in Calm   2.0 mph 76 % 0.00 in
19:01 72.7 °F 65.1 °F 30.20 in Calm   1.0 mph 77 % 0.00 in
19:06 72.7 °F 65.1 °F 30.21 in Calm   1.0 mph 77 % 0.00 in
19:11 72.7 °F 65.1 °F 30.21 in Calm   1.0 mph 77 % 0.00 in
19:16 72.5 °F 64.9 °F 30.21 in Calm   1.0 mph 77 % 0.00 in
19:21 72.3 °F 64.8 °F 30.21 in Calm     77 % 0.00 in
19:26 72.3 °F 64.8 °F 30.21 in Calm     77 % 0.00 in
19:31 72.1 °F 64.9 °F 30.22 in Calm     78 % 0.00 in
19:36 72.0 °F 64.8 °F 30.22 in Calm     78 % 0.00 in
19:41 71.8 °F 64.9 °F 30.22 in Calm     79 % 0.00 in
19:46 71.6 °F 64.8 °F 30.22 in Calm     79 % 0.00 in
19:51 71.2 °F 64.8 °F 30.22 in Calm     80 % 0.00 in
19:56 71.1 °F 64.6 °F 30.22 in Calm     80 % 0.00 in
20:01 70.7 °F 64.6 °F 30.22 in Calm     81 % 0.00 in
20:06 70.5 °F 64.8 °F 30.22 in Calm     82 % 0.00 in
20:11 70.3 °F 64.6 °F 30.22 in Calm   1.0 mph 82 % 0.00 in
20:16 70.0 °F 64.2 °F 30.22 in Calm   1.0 mph 82 % 0.00 in
20:21 70.0 °F 64.2 °F 30.23 in East 2.0 mph 2.0 mph 82 % 0.00 in
20:26 70.2 °F 64.4 °F 30.23 in North 1.0 mph 2.0 mph 82 % 0.00 in
20:31 70.0 °F 63.9 °F 30.23 in Calm   2.0 mph 81 % 0.00 in
20:36 70.0 °F 64.2 °F 30.23 in Calm   3.0 mph 82 % 0.00 in
20:41 70.0 °F 64.2 °F 30.23 in Calm   3.0 mph 82 % 0.00 in
20:46 69.6 °F 63.9 °F 30.23 in Calm   3.0 mph 82 % 0.00 in
20:49 69.4 °F 63.7 °F 30.23 in Calm   3.0 mph 82 % 0.00 in
20:54 69.3 °F 63.9 °F 30.23 in Calm   2.0 mph 83 % 0.00 in
21:00 68.9 °F 63.9 °F 30.23 in Calm   1.0 mph 84 % 0.00 in
21:05 68.7 °F 63.7 °F 30.23 in Calm   1.0 mph 84 % 0.00 in
21:10 68.4 °F 63.7 °F 30.23 in Calm   1.0 mph 85 % 0.00 in
21:15 68.2 °F 63.5 °F 30.23 in Calm   1.0 mph 85 % 0.00 in
21:20 68.0 °F 63.7 °F 30.23 in Calm   1.0 mph 86 % 0.00 in
21:25 67.8 °F 63.5 °F 30.24 in Calm   1.0 mph 86 % 0.00 in
21:30 67.6 °F 63.7 °F 30.24 in Calm   1.0 mph 87 % 0.00 in
21:35 67.5 °F 63.5 °F 30.24 in Calm   1.0 mph 87 % 0.00 in
21:40 67.3 °F 63.3 °F 30.24 in Calm   1.0 mph 87 % 0.00 in
21:44 67.1 °F 63.1 °F 30.24 in Calm   1.0 mph 87 % 0.00 in
21:49 66.7 °F 62.8 °F 30.24 in Calm     87 % 0.00 in
21:54 66.6 °F 63.1 °F 30.25 in Calm     89 % 0.00 in
21:59 66.6 °F 63.1 °F 30.25 in Calm     89 % 0.00 in
22:04 66.4 °F 63.0 °F 30.25 in Calm   1.0 mph 89 % 0.00 in
22:09 66.2 °F 62.8 °F 30.25 in Calm   1.0 mph 89 % 0.00 in
22:14 66.0 °F 63.0 °F 30.25 in Calm   1.0 mph 90 % 0.00 in
22:19 65.8 °F 62.8 °F 30.25 in Calm   1.0 mph 90 % 0.00 in
22:24 65.5 °F 62.4 °F 30.25 in Calm   1.0 mph 90 % 0.00 in
22:29 65.5 °F 62.8 °F 30.25 in Calm     91 % 0.00 in
22:34 65.1 °F 62.4 °F 30.25 in Calm     91 % 0.00 in
22:39 64.9 °F 62.2 °F 30.25 in Calm     91 % 0.00 in
22:44 64.8 °F 62.4 °F 30.25 in Calm     92 % 0.00 in
22:49 64.8 °F 62.4 °F 30.25 in Calm     92 % 0.00 in
22:54 64.9 °F 62.8 °F 30.24 in Calm     93 % 0.00 in
22:59 64.9 °F 62.8 °F 30.24 in Calm     93 % 0.00 in
23:04 64.9 °F 62.8 °F 30.24 in Calm     93 % 0.00 in
23:09 65.1 °F 63.0 °F 30.24 in Calm     93 % 0.00 in
23:14 65.5 °F 63.3 °F 30.24 in Calm     93 % 0.00 in
23:19 65.7 °F 63.5 °F 30.25 in Calm     93 % 0.00 in
23:24 65.8 °F 63.7 °F 30.25 in Calm   1.0 mph 93 % 0.00 in
23:29 66.0 °F 63.9 °F 30.25 in Calm   1.0 mph 93 % 0.00 in
23:34 66.0 °F 63.9 °F 30.25 in Calm   1.0 mph 93 % 0.00 in
23:39 66.4 °F 64.0 °F 30.25 in Calm   1.0 mph 92 % 0.00 in
23:45 66.4 °F 64.0 °F 30.25 in Calm   1.0 mph 92 % 0.00 in
23:50 66.4 °F 64.0 °F 30.25 in Calm   1.0 mph 92 % 0.00 in
23:55 66.4 °F 64.0 °F 30.24 in Calm     92 % 0.00 in
Spring, Texas: Villages of Bridgestone
Compliments of Weather Underground - 3 mb

Script developed by  Jim McMurry - jmcmurry@mwt.net Adapted for the template by  Wim van der Kuil - Leuven-Template.eu

You find our weather info also at:

UK Metoffice

WeatherCloud

Weather Underground

Mid-South Weather Network

AWEKAS

Citizen Weather Observer Program (CWOP)

HAMweather, WeatherForYou, PWS Weather

Equipment we use:

Weather-station
Davis Vantage Vue

Weather-program
Meteohub

Weather-server
Debian 7.9 x86 (Guest)

Provider
DreamHost

Davis Vantage Vue

Meteohub

Debian 7.9 x86 (Guest)

DreamHost